Time,TemperatureF,DewpointF,PressureIn,WindDirection,WindDirectionDegrees,WindSpeedMPH,WindSpeedGustMPH,Humidity,HourlyPrecipIn,Conditions,Clouds,dailyrainin,SoftwareType,DateUTC
2013-03-24 00:10:00,46.6,12.7,29.48,ESE,112,0.0,-999.0,25,-99.99,,,0.02,Acu-Link.com,2013-03-24 05:10:00,
2013-03-24 00:25:00,46.2,19.4,29.48,ESE,112,2.2,-999.0,34,-99.99,,,0.04,Acu-Link.com,2013-03-24 05:25:00,
2013-03-24 01:11:00,46.2,19.4,29.47,West,270,0.0,-999.0,34,-99.99,,,0.08,Acu-Link.com,2013-03-24 06:11:00,
2013-03-24 01:26:00,46.0,18.5,29.45,ENE,67,0.0,-999.0,33,-99.99,,,0.12,Acu-Link.com,2013-03-24 06:26:00,
2013-03-24 01:41:00,45.9,19.1,29.43,ENE,67,3.7,-999.0,34,-99.99,,,0.14,Acu-Link.com,2013-03-24 06:41:00,
2013-03-24 01:56:00,45.7,19.0,29.40,East,90,5.3,-999.0,34,-99.99,,,0.15,Acu-Link.com,2013-03-24 06:56:00,
2013-03-24 02:11:00,45.7,20.3,29.41,ENE,67,2.7,-999.0,36,-99.99,,,0.16,Acu-Link.com,2013-03-24 07:11:00,
2013-03-24 02:42:00,45.3,17.9,29.40,ENE,67,0.0,-999.0,33,-99.99,,,0.16,Acu-Link.com,2013-03-24 07:42:00,
2013-03-24 02:57:00,45.1,16.3,29.38,NE,45,4.2,-999.0,31,-99.99,,,0.17,Acu-Link.com,2013-03-24 07:57:00,
2013-03-24 03:12:00,45.0,15.5,29.37,NE,45,6.3,-999.0,30,-99.99,,,0.17,Acu-Link.com,2013-03-24 08:12:00,
2013-03-24 03:27:00,44.8,13.7,29.38,NE,45,0.0,-999.0,28,-99.99,,,0.17,Acu-Link.com,2013-03-24 08:27:00,
2013-03-24 03:42:00,44.6,15.9,29.35,ENE,67,4.2,-999.0,31,-99.99,,,0.17,Acu-Link.com,2013-03-24 08:42:00,
2013-03-24 03:58:00,44.4,14.2,29.36,WNW,292,0.0,-999.0,29,-99.99,,,0.17,Acu-Link.com,2013-03-24 08:58:00,
2013-03-24 04:13:00,44.1,12.3,29.36,ENE,67,0.0,-999.0,27,-99.99,,,0.17,Acu-Link.com,2013-03-24 09:13:00,
2013-03-24 04:28:00,43.7,8.4,29.35,ENE,67,3.2,-999.0,23,-99.99,,,0.17,Acu-Link.com,2013-03-24 09:28:00,
2013-03-24 04:43:00,43.3,0.2,29.34,NNE,22,0.0,-999.0,16,-99.99,,,0.17,Acu-Link.com,2013-03-24 09:43:00,
2013-03-24 04:59:00,43.2,-4.3,29.36,North,0,0.0,-999.0,13,-99.99,,,0.17,Acu-Link.com,2013-03-24 09:59:00,
2013-03-24 05:14:00,42.8,-8.0,29.36,NE,45,2.7,-999.0,11,-99.99,,,0.17,Acu-Link.com,2013-03-24 10:14:00,
2013-03-24 05:29:00,42.6,-20.1,29.35,NNE,22,0.0,-999.0,6,-99.99,,,0.17,Acu-Link.com,2013-03-24 10:29:00,
2013-03-24 05:44:00,42.3,-40.2,29.34,ENE,67,0.0,-999.0,2,-99.99,,,0.17,Acu-Link.com,2013-03-24 10:44:00,
2013-03-24 05:59:00,41.9,-28.2,29.34,NE,45,0.0,-999.0,4,-99.99,,,0.17,Acu-Link.com,2013-03-24 10:59:00,
2013-03-24 06:14:00,41.7,-8.9,29.34,ENE,67,5.8,-999.0,11,-99.99,,,0.17,Acu-Link.com,2013-03-24 11:14:00,
2013-03-24 06:29:00,41.7,-15.2,29.36,ENE,67,0.0,-999.0,8,-99.99,,,0.17,Acu-Link.com,2013-03-24 11:29:00,
2013-03-24 06:44:00,41.7,-8.9,29.35,NNW,337,0.0,-999.0,11,-99.99,,,0.17,Acu-Link.com,2013-03-24 11:44:00,
2013-03-24 06:59:00,41.5,5.5,29.35,NNW,337,0.0,-999.0,22,-99.99,,,0.18,Acu-Link.com,2013-03-24 11:59:00,
2013-03-24 07:15:00,41.4,7.4,29.35,NE,45,0.0,-999.0,24,-99.99,,,0.18,Acu-Link.com,2013-03-24 12:15:00,
2013-03-24 07:30:00,41.4,10.8,29.36,NNE,22,0.0,-999.0,28,-99.99,,,0.18,Acu-Link.com,2013-03-24 12:30:00,
2013-03-24 07:45:00,41.4,11.6,29.34,NE,45,0.0,-999.0,29,-99.99,,,0.19,Acu-Link.com,2013-03-24 12:45:00,
2013-03-24 08:00:00,41.4,11.6,29.34,NE,45,0.0,-999.0,29,-99.99,,,0.19,Acu-Link.com,2013-03-24 13:00:00,
2013-03-24 08:15:00,41.4,13.1,29.34,NE,45,0.0,-999.0,31,-99.99,,,0.19,Acu-Link.com,2013-03-24 13:15:00,
2013-03-24 08:30:00,41.4,13.8,29.33,East,90,0.0,-999.0,32,-99.99,,,0.21,Acu-Link.com,2013-03-24 13:30:00,
2013-03-24 08:45:00,41.5,15.9,29.34,ENE,67,0.0,-999.0,35,-99.99,,,0.21,Acu-Link.com,2013-03-24 13:45:00,
2013-03-24 09:00:00,41.7,14.0,29.34,ENE,67,0.0,-999.0,32,-99.99,,,0.21,Acu-Link.com,2013-03-24 14:00:00,
2013-03-24 09:15:00,41.7,11.8,29.33,ENE,67,0.0,-999.0,29,-99.99,,,0.21,Acu-Link.com,2013-03-24 14:15:00,
2013-03-24 09:31:00,41.9,11.2,29.33,ESE,112,0.0,-999.0,28,-99.99,,,0.21,Acu-Link.com,2013-03-24 14:31:00,
2013-03-24 10:31:00,42.3,17.3,29.20,East,90,4.7,-999.0,36,-99.99,,,0.22,Acu-Link.com,2013-03-24 15:31:00,
2013-03-24 10:46:00,43.9,18.7,29.16,ESE,112,10.9,-999.0,36,-99.99,,,0.22,Acu-Link.com,2013-03-24 15:46:00,
2013-03-24 11:16:00,44.4,-22.3,29.23,ESE,112,4.7,-999.0,5,-99.99,,,0.22,Acu-Link.com,2013-03-24 16:16:00,
2013-03-24 11:47:00,44.1,10.6,29.20,SSE,157,4.7,-999.0,25,-99.99,,,0.22,Acu-Link.com,2013-03-24 16:47:00,
2013-03-24 12:02:00,44.2,14.0,29.24,West,270,0.0,-999.0,29,-99.99,,,0.22,Acu-Link.com,2013-03-24 17:02:00,
2013-03-24 12:17:00,44.2,17.6,29.22,West,270,0.0,-999.0,34,-99.99,,,0.22,Acu-Link.com,2013-03-24 17:17:00,
2013-03-24 12:32:00,44.2,19.0,29.19,NNW,337,0.0,-999.0,36,-99.99,,,0.24,Acu-Link.com,2013-03-24 17:32:00,
2013-03-24 12:47:00,45.0,20.9,29.19,West,270,0.0,-999.0,38,-99.99,,,0.31,Acu-Link.com,2013-03-24 17:47:00,
2013-03-24 13:02:00,45.1,20.4,29.20,West,270,0.0,-999.0,37,-99.99,,,0.34,Acu-Link.com,2013-03-24 18:02:00,
2013-03-24 13:17:00,45.5,19.5,29.20,West,270,4.2,-999.0,35,-99.99,,,0.34,Acu-Link.com,2013-03-24 18:17:00,
2013-03-24 13:32:00,45.9,8.2,29.18,West,270,0.0,-999.0,21,-99.99,,,0.35,Acu-Link.com,2013-03-24 18:32:00,
2013-03-24 13:47:00,45.7,11.9,29.17,West,270,0.0,-999.0,25,-99.99,,,0.36,Acu-Link.com,2013-03-24 18:47:00,
2013-03-24 14:03:00,47.3,21.7,29.17,West,270,0.0,-999.0,36,-99.99,,,0.37,Acu-Link.com,2013-03-24 19:03:00,
2013-03-24 14:33:00,47.3,43.6,29.17,West,270,5.8,-999.0,87,-99.99,,,0.37,Acu-Link.com,2013-03-24 19:33:00,
2013-03-24 14:48:00,46.9,11.1,29.18,SW,225,0.0,-999.0,23,-99.99,,,0.38,Acu-Link.com,2013-03-24 19:48:00,
2013-03-24 15:03:00,50.7,50.2,29.17,West,270,5.3,-999.0,98,-99.99,,,0.38,Acu-Link.com,2013-03-24 20:03:00,
2013-03-24 15:19:00,49.6,49.3,29.17,West,270,1.7,-999.0,99,-99.99,,,0.38,Acu-Link.com,2013-03-24 20:19:00,
2013-03-24 15:34:00,49.5,49.2,29.17,WSW,247,1.7,-999.0,99,-99.99,,,0.38,Acu-Link.com,2013-03-24 20:34:00,
2013-03-24 15:49:00,48.0,47.7,29.18,West,270,5.3,-999.0,99,-99.99,,,0.38,Acu-Link.com,2013-03-24 20:49:00,
2013-03-24 16:04:00,46.0,-37.8,29.18,West,270,4.2,-999.0,2,-99.99,,,0.41,Acu-Link.com,2013-03-24 21:04:00,
2013-03-24 16:19:00,45.9,45.1,29.18,North,0,4.7,-999.0,97,-99.99,,,0.42,Acu-Link.com,2013-03-24 21:19:00,
2013-03-24 16:35:00,44.6,44.1,29.18,WNW,292,5.8,-999.0,98,-99.99,,,0.42,Acu-Link.com,2013-03-24 21:35:00,
2013-03-24 16:50:00,44.4,43.9,29.20,WNW,292,0.0,-999.0,98,-99.99,,,0.42,Acu-Link.com,2013-03-24 21:50:00,
2013-03-24 17:05:00,44.4,43.9,29.20,West,270,1.1,-999.0,98,-99.99,,,0.42,Acu-Link.com,2013-03-24 22:05:00,
2013-03-24 17:20:00,43.7,43.2,29.20,NW,315,5.8,-999.0,98,-99.99,,,0.42,Acu-Link.com,2013-03-24 22:20:00,
2013-03-24 17:35:00,42.8,42.3,29.21,East,90,7.3,-999.0,98,-99.99,,,0.43,Acu-Link.com,2013-03-24 22:35:00,
2013-03-24 17:50:00,42.4,41.9,29.21,NE,45,3.2,-999.0,98,-99.99,,,0.43,Acu-Link.com,2013-03-24 22:50:00,
2013-03-24 18:05:00,42.3,41.8,29.22,West,270,0.0,-999.0,98,-99.99,,,0.43,Acu-Link.com,2013-03-24 23:05:00,
2013-03-24 18:20:00,41.9,41.4,29.23,West,270,5.3,-999.0,98,-99.99,,,0.43,Acu-Link.com,2013-03-24 23:20:00,
2013-03-24 18:35:00,40.5,40.0,29.25,West,270,15.5,-999.0,98,-99.99,,,0.43,Acu-Link.com,2013-03-24 23:35:00,
2013-03-24 18:51:00,39.2,38.7,29.27,West,270,14.5,-999.0,98,-99.99,,,0.44,Acu-Link.com,2013-03-24 23:51:00,
2013-03-24 19:21:00,37.2,36.7,29.31,West,270,13.0,-999.0,98,-99.99,,,0.45,Acu-Link.com,2013-03-25 00:21:00,
2013-03-24 19:36:00,36.9,36.4,29.33,West,270,10.9,-999.0,98,-99.99,,,0.45,Acu-Link.com,2013-03-25 00:36:00,
2013-03-24 19:51:00,36.5,36.0,29.32,West,270,9.4,-999.0,98,-99.99,,,0.45,Acu-Link.com,2013-03-25 00:51:00,
2013-03-24 20:06:00,36.3,35.8,29.33,WSW,247,17.1,-999.0,98,-99.99,,,0.45,Acu-Link.com,2013-03-25 01:06:00,
2013-03-24 20:22:00,36.3,36.0,29.34,West,270,6.8,-999.0,99,-99.99,,,0.45,Acu-Link.com,2013-03-25 01:22:00,
2013-03-24 20:39:00,36.1,35.8,29.35,West,270,19.7,-999.0,99,-99.99,,,0.45,Acu-Link.com,2013-03-25 01:39:00,
2013-03-24 20:55:00,36.3,36.0,29.36,West,270,4.2,-999.0,99,-99.99,,,0.45,Acu-Link.com,2013-03-25 01:55:00,
2013-03-24 21:10:00,35.6,35.3,29.37,West,270,8.9,-999.0,99,-99.99,,,0.45,Acu-Link.com,2013-03-25 02:10:00,
2013-03-24 21:25:00,34.7,34.4,29.38,West,270,7.8,-999.0,99,-99.99,,,0.45,Acu-Link.com,2013-03-25 02:25:00,
2013-03-24 21:43:00,34.3,34.0,29.39,West,270,6.3,-999.0,99,-99.99,,,0.45,Acu-Link.com,2013-03-25 02:43:00,
2013-03-24 21:58:00,34.9,34.6,29.39,West,270,7.8,-999.0,99,-99.99,,,0.45,Acu-Link.com,2013-03-25 02:58:00,
2013-03-24 22:14:00,35.2,34.9,29.39,West,270,12.5,-999.0,99,-99.99,,,0.45,Acu-Link.com,2013-03-25 03:14:00,
2013-03-24 22:29:00,35.4,35.1,29.40,WSW,247,5.8,-999.0,99,-99.99,,,0.45,Acu-Link.com,2013-03-25 03:29:00,
2013-03-24 22:44:00,35.4,35.1,29.41,West,270,4.2,-999.0,99,-99.99,,,0.45,Acu-Link.com,2013-03-25 03:44:00,
2013-03-24 22:59:00,35.4,35.1,29.41,West,270,10.4,-999.0,99,-99.99,,,0.45,Acu-Link.com,2013-03-25 03:59:00,